Share

Al-Wafra, Kuwait

Kuwait International (OKBK) Elev 180 ft | 29.22 °N, 47.98 °E | Change Station

Current weather conditions updated 15 minutes ago

Clear
Clear
82 °F
Feels Like 82 °F
N
4
Wind Variable Wind from NE
Sunrise 5:20 AM
Sunset 6:14 PM
Moon Waning Gibbous

Today is forecast to be nearly the same temperature as yesterday.

Pressure 29.86 in
Visibility -9999.0 miles
Clouds
Dew Point 50 °F
Humidity 32%
Rainfall 0.00 in
Snow Depth Not available.
UV Not available.
Pollen Not available.
Air Quality Not available.
Flu Activity Not available.
METAR OKBK 170300Z 05003KT CAVOK 28/10 Q1011 NOSIG

More Conditions Fewer Conditions

Pressure 29.86 in
Visibility -9999.0 miles
Clouds
Dew Point 50 °F
Humidity 32%
Rainfall 0.00 in
Snow Depth Not available.
UV Not available.
Pollen Not available.
Air Quality Not available.
Flu Activity Not available.
METAR OKBK 170300Z 05003KT CAVOK 28/10 Q1011 NOSIG

More Conditions Fewer Conditions

10-Day Forecast

Almanac

Astronomy

Apr. 17, 2014 Rise Set
Actual Time 5:20 AM AST 6:14 PM AST
Civil Twilight 4:56 AM AST 6:38 PM AST
Nautical Twilight 4:27 AM AST 7:07 PM AST
Astronomical Twilight 3:58 AM AST 7:36 PM AST
Moon 8:27 PM AST 6:42 AM AST
Length of Visible Light 13h 42m
Length of Day
12h 53m
Tomorrow will be 1m 36s longer.
Waning Gibbous, 96% of the Moon is Illuminated
Apr 16
Waning Gibbous
Apr 22
Last Quarter
Apr 29
New
May 6
First Quarter
May 14
Full

Yesterday's Extremes

Country Highs Country Lows

Community

  • symphony in blue....
    symphony in blue....
  • Dawn Surprise
    Dawn Surprise
  • Yucca delight
    Yucca delight
  • Sunset inside of the Ocean
    Sunset inside of the Ocean
  • Lunar eclipse 15 April 2014
    Lunar eclipse 15 April 2014

WunderPhotos

Upload Photos

1,701,832 photos uploaded!

WunderBlogs® & News

Nearby

Snow Depth

Not available.

Coastal Water Temperatures

Place Temperature
No Stations Reporting

Earthquake Activity

City Distance Mag. Time & Date
No recent earthquake activity has been reported nearby.
Minimum magnitude displayed is 2.5.

Nearby Weather Stations

There are no personal weather stations in this area.

What do you think?

We're not finished. Please let us know what you like, what you don't like, and what you are still missing.